No identification:

 

2001 YB5                                                                    

Epoch 2001 Oct. 18.0 TT = JDT 2452200.5                 MPC      

M 326.67916              (2000.0)            P               Q

n   0.27336657     Peri.  114.03489     -0.72162236     +0.68652998

a   2.3512878      Node   109.45671     -0.66453381     -0.65085896

e   0.8618716      Incl.    5.42197     -0.19405152     -0.32412837

P   3.61           H   20.5           G   0.15           U   6

Residuals in seconds of arc 

011226 608  0.1-  0.5-    020103 198  0.0   0.1-    020105 413  0.0   0.1-  

011226 608  0.4+  0.4-    020103 198  0.0   0.0     020105 413  0.1+  0.4-  

011226 608  0.1-  0.9-    020103 198  0.1+  0.3-    020105 413  0.0   0.3-  

011227 644  0.1+  0.1+    020103 113  0.1-  0.1+    020105 413  0.1-  0.2-  

011227 644  0.1-  0.2+    020103 113  0.1+  0.0     020105 413  0.0   0.2-  

011227 644  0.1+  0.2+    020103 113  0.2+  0.1+    020105 340  0.2+  1.2-  

011228 118  0.1-  0.1-    020103 113  0.0   0.2+    020105 340  0.7+  0.7-  

011228 118  0.3+  0.2+    020103 113  0.0   0.1+    020105 413  0.1-  0.1+  

011228 734  0.8+  0.2-    020103 938  0.8-  0.1+    020105 413  0.2-  0.2-  

011228 734  0.3+  0.3-    020103 106  0.1+  0.3+    020105 340  1.2+  0.6-  

011228 734  0.4+  1.0-    020103 938  0.0   0.4+    020105 340  0.2+  0.4-  

011228 734  0.6-  0.0     020103 938  0.6-  0.5+    020105 340  0.2+  0.5+  

011228 734  0.5+  0.3+    020103 106  0.2+  0.3+    020105 355  0.0   0.2-  

011231 649  0.1-  0.3-    020103 185  0.0   0.1-    020105 355  0.1-  0.5-  

011231 649  0.1+  0.0     020103 185  0.3-  0.1-    020105 355  0.3-  0.5-  

011231 649  1.0+  0.4+    020103 118  0.5-  0.0     020105 355  0.0   0.7-  

011231 413  0.5+  0.2+    020103 106  0.1-  0.3+    020105 379  0.8+  0.4+  

011231 413  0.2-  0.4-    020103 185  0.2-  0.1-    020105 379  0.7+  0.3+  

011231 413  0.4+  0.3-    020103 185  0.0   0.2-    020105 379  0.4+  0.7+  

011231 413  0.1+  0.3-    020103 185  0.1-  0.0     020105 379  0.2+  0.2+  

011231 413  1.2+  0.2-    020103 145  0.1-  0.4-    020105 379  0.6+  0.3+  

020101 413  0.2+  0.1+    020103 145  1.1+  0.6-    020105 379  0.7+  0.4+  

020101 413  0.1+  0.0     020103 145  0.2+  0.2-    020105 379  0.6+  0.0   

020101 413  0.1+  0.1+    020103 145  0.2-  0.6+    020105 379  0.9+  0.1+  

020101 413  0.0   0.1+    020103 145  0.4+  0.5+    020105 379  0.8+  0.1+  

020101 413  0.0   0.1+    020103 145  0.0   0.2+    020105 379  0.5+  0.4+  

020101 413  0.1+  0.0     020103 952  1.0-  0.0     020105 379  0.4+  0.2+  

020101 413  0.3+  0.1+    020103 952  0.1-  1.0+    020105 379  0.5+  0.5+  

020101 413  0.1+  0.1-    020103 952  0.2+  0.2+    020105 379  0.6+  0.0   

020101 413  0.0   0.0     020103 938  0.1-  0.1+    020105 340  0.1-  0.4-  

020101 203  0.3-  0.7+    020103 952  0.4+  0.3+    020105 340  0.1+  0.1-  

020101 203  0.3-  0.2-    020103 952  0.3+  0.2+    020105 340  0.2+  0.7+  

020101 203  0.3-  0.1-    020103 938  0.2-  0.2+    020105 413  0.2-  0.0   

020102 734  0.2-  0.1-    020103 938  0.3-  0.7-    020105 413  0.4-  0.5+  

020102 734  0.1-  0.2-    020103 952  0.3-  0.1+    020105 413  0.1-  0.0   

020102 734  0.3-  0.0     020103 952  0.2-  0.4+    020105 340  0.1+  0.0   

020102 734  0.2+  0.1+    020103 952  0.9-  0.3-    020105 413  0.1-  0.1+  

020102 734  0.3-  0.1-    020104 636  0.0   0.6-    020105 413  0.2-  0.0   

020102 649  0.1+  0.0     020104 636  0.1+  0.3-    020105 413  0.1-  0.1-  

020102 649  0.2+  0.0     020104 636  0.1-  0.2+    020105 413  0.3-  0.1+  

020102 649  0.2+  0.0     020104 118  0.1-  0.0     020105 413  0.2-  0.0   

020102 322  0.2-  0.1+    020104 734  0.8+  0.7-    020105 413  0.1-  0.1+  

020102 322  0.3-  0.2+    020104 734  0.3+  0.5-    020105 413  0.1-  0.1+  

020102 322  0.1-  0.2+    020104 734  0.4+  0.5-    020105 413  0.2-  0.0   

020102 322  0.1+  0.2-    020104 649  0.1+  0.0     020105 413  0.0   0.1-  

020102 322  0.3-  0.7+    020104 649  0.1-  0.2+    020105 413  0.2-  0.2-  

020102 104  0.0   0.3-    020104 649  0.1+  0.2-    020105 611  1.2+  0.3-  

020102 104  0.3-  0.0     020104 670  0.1-  0.1+    020105 611  0.1+  0.0   

020102 104  0.1-  0.0     020104 670  0.3+  0.4-    020105 611  0.1+  0.1+  

020102 104 (2.7-  6.1+)   020104 670  0.2+  0.2-    020105 611  0.1-  0.3-  

020102 203  0.5-  0.3+    020104 413  0.1-  0.5-    020105 611  0.1+  0.1+  

020102 203  0.0   0.2+    020104 413  0.0   0.1-    020105 611  0.6+  0.7-  

020102 203  0.2+  0.0     020104 413  0.6-  0.2-    020105 636  0.1-  0.2+  

020102 203  0.1+  0.1+    020104 413  0.1+  0.2-    020105 636  0.2+  0.0   

020103 106  0.3-  0.7+    020104 355  0.2-  0.1-    020105 636  0.2+  0.2-  

020103 106  0.0   0.1+    020104 355  0.0   0.4-    020105 636  0.2+  0.1+  

020103 106  0.1+  0.4+    020104 413  0.2-  0.6-    020105 118  0.2-  0.2-  

020103 649  0.2-  0.3-    020104 355  0.1-  0.2+    020105 118  0.4-  0.3+  

020103 739  0.0   0.1+    020104 355  0.2-  0.5+    020105 118  0.3-  0.3-  

020103 649  0.3-  0.5+    020104 349  0.1-  0.4+    020106 355  0.0   1.1-  

020103 739  0.2-  0.9+    020104 349  0.0   0.2+    020106 355  0.1+  1.2-  

020103 734  0.1-  0.3-    020104 349  0.3-  0.3-    020106 355  0.1+  1.2-  

020103 734  0.1+  0.4-    020104 349  0.2+  0.3+    020106 355  0.3+  1.2-  

020103 734  0.1-  0.5-    020104 106  1.2-  1.3+    020106 379  0.6+  0.7+  

020103 649  0.1+  0.2+    020104 106  0.1-  0.3+    020106 379  0.1+  1.3+  

020103 649  0.2+  0.1+    020104 106  0.4-  0.2+    020106 379  0.7+  0.7+  

020103 649  0.2+  0.1+    020104 118  0.1-  0.3+    020106 340  0.5-  0.0   

020103 649  0.2+  0.2+    020104 118  0.2+  0.0     020106 355  0.4+  1.2-  

020103 649  0.2+  0.2+    020104 118  0.1+  0.5-    020106 340  0.9-  0.7+  

020103 649  0.2+  0.2+    020104 106  0.1+  0.2+    020106 340  0.6-  0.1+  

020103 106  0.5-  0.9+    020104 106  0.0   0.4+    020106 340  0.2-  0.6-  

020103 151  0.2+  0.0     020104 106  0.0   0.1+    020106 355  0.0   1.0-  

020103 151  0.0   0.3-    020104 198  0.6-  1.0+    020106 355  0.0   1.0-  

020103 151  0.0   0.1-    020104 198  0.4-  0.6+    020106 340  0.1-  0.4-  

020103 106  0.5-  1.0+    020104 198  0.0   0.0     020106 355  0.1+  1.2-  

020103 151  0.2+  0.4-    020104 198  0.3-  0.3+    020106 379  0.2+  0.6+  

020103 151  0.0   0.1+    020104 198  0.2-  0.2+    020106 379  0.2+  1.1+  

020103 106  0.6-  1.2+    020104 198  0.5-  1.1+    020106 379  0.1+  0.8+  

020103 151  0.0   0.2-    020105 636  0.0   0.4-    020106 379  0.1+  1.3+  

020103 611  0.6+  0.5-    020105 636  0.1+  0.4-    020106 379  0.2+  0.7+  

020103 611  0.6+  0.2+    020105 636  0.2+  0.5-    020106 379  0.3+  1.4+  

020103 611  0.5+  0.1-    020105 046  0.2-  0.1+    020106 379  0.5+  0.5+  

020103 198  0.1+  0.4+    020105 046  0.2+  0.0     020106 379  0.6+  0.6+  

020103 046  0.0   0.1-    020105 046  0.0   0.1+    020106 379  0.7+  0.9+  

020103 046  0.2+  0.4-    020105 046  0.0   0.1-    020106 379  0.4+  1.3+  

020103 198  0.1+  0.1-    020105 046  0.1-  0.0     020106 349  0.1-  1.0-  

020103 046  0.2+  0.1-    020105 670  0.1+  0.0     020106 349  0.6-  0.2-  

020103 046  0.0   0.0     020105 670  0.4+  0.4-    020106 349  0.7-  0.1+  

020103 046  0.1+  0.2-    020105 670  0.1+  0.2-    020106 349  0.7-  0.2-  

020103 118  0.2-  0.2+    020105 413  0.1-  0.2-                            

 

 

NAKANO

         **** Don't distribute anyone except personal use only ****

                (C) Copyright 2002 OAA/ComputingSection

write mail from CFAD0::NAKANO on 2002-01-07 05:10:03(JST).



◎2001 YB5の軌道と予報位置です



 1月4日に秦野(浅見敦夫),5日の夜に上尾(門田健一),豊中(江崎裕介),

浜松(和久田俊一),秦野から観測の報告がありました.だいぶ速くなってきまし

た.1月6/7日には,南中時で日々運動が40゚,光度も12等級まで明るくなります.



No identification:

 

2001 YB5 

Epoch 2001 Oct. 18.0 TT = JDT 2452200.5                 MPC      

M 326.89407              (2000.0)            P               Q

n   0.27166990     Peri.  114.03945     -0.72156391     +0.68657588

a   2.3610673      Node   109.45616     -0.66462192     -0.65079306

e   0.8625780      Incl.    5.42925     -0.19396711     -0.32416347

P   3.63           H   20.4           G   0.15           U   7



                                                                                

                                                             Vel. to

Date        Time (UT)  R. A. (2000) Decl.         Delta     R       Mag.  Daily 

Motion    P.A./Tail    Obj. h   A     Sun h   A     Distance    355 

Year Mo. D.  h  m  s     h  m  s       。  ,  "         AU      AU    V        , 

    。       。   。          。      。      。      。         Km    Km/s

2002  1  6  07 30 00   08 42 03.3   +00 58 45     0.01863   0.999   13.1  1015.0

/147.4   315.1/28.24    -33.3  241    + 2.0   60    2786471.2  30.90

2002  1  6  08 00 00   08 42 48.9   +00 40 56     0.01827   0.999   13.0  1053.2

/147.6   315.3/28.59    -28.1  247    - 3.5   65    2733473.8  30.92

2002  1  6  08 30 00   08 43 36.0   +00 22 26     0.01792   0.999   13.0  1092.4

/147.8   315.4/28.95    -22.7  252    - 9.1   69    2680505.9  30.96

2002  1  6  09 00 00   08 44 24.5   +00 03 11     0.01756   0.998   13.0  1134.3

/148.0   315.6/29.33    -17.1  257    -14.9   73    2627634.2  30.96

2002  1  6  09 30 00   08 45 14.6   -00 16 52     0.01721   0.998   12.9  1179.3

/148.2   315.7/29.73    -11.4  262    -20.8   77    2574849.8  30.97

2002  1  6  10 00 00   08 46 06.3   -00 37 45     0.01686   0.998   12.9  1225.8

/148.5   315.9/30.13    - 5.7  267    -26.8   80    2522145.2  30.98

2002  1  6  10 30 00   08 46 59.7   -00 59 31     0.01651   0.997   12.9  1275.8

/148.7   316.0/30.56    + 0.1  271    -32.9   84    2469590.0  30.97

2002  1  6  11 00 00   08 47 54.9   -01 22 14     0.01616   0.997   12.8  1329.7

